STARLINK-32826, 62970

Orbit data source: Space-Track

STARLINK-32826, 62970 is a payload satellite owned by SpaceX/Seattle (US) in LEO that was launched on Tue, 11 Feb 2025 UTC via an FALCON 9 launch vehicle from the Air Force Western Test Range (AFWTR). Payload-class satellites include a variety of spacecraft equipped with specific instruments for various scientific and technological missions. These include communications satellites like Starlink; space stations such as the ISS; scientific satellites like the Hubble; Earth observation satellites from companies like Planet Labs, Umbra, and HawkEye 360; GPS; miniature CubeSats for education and research; and military/defense satellites.

Loading next visibility...
Identifier
62970, 2025-029Y
Orbit
LEO
Country
Flag of USUS
Related business
Manufacturer
SpaceX/Seattle
Mission
Operational Commercial Communications
Bus & Motor
STARLINK V2M, Unknown motor
Mass
730 kg wet, ~700 kg dry
Launch date (UTC)
2025-02-11 (1 year ago)
Launch vehicle
FALCON 9
Launch site
Air Force Western Test Range (AFWTR)
Object type
Payload
Rocket body
Debris
Shape & HBR
Box + 2 Pan, 17.7 m
Radar Cross Section
33.884 m², Large (>1 m²)

Expand to show TLE details & history
Last TLE update: 2 days ago

TLE from 2 days ago
0 STARLINK-32826
1 62970U 25029Y   26170.13926460  .00026915  00000-0  91735-3 0  9990
2 62970  53.1589 120.9706 0001341  93.6629 266.4525 15.30207762 76855
Epoch: 2026-06-19T03:20Z
TLE epoch observation values (Epoch: 2026-06-19T03:20:32.461Z)
Latitude
-0.00003°
Longitude
163.46279°
Altitude
476.148 km
Speed
7.629 km/s
True Right ascension
08h 03m 52s
True Declination
0° 00' 00"
Sunlit
Object was in daylight at epoch
Visualization orbit readout
Latitude
Unknown
Longitude
Unknown
Altitude
Unknown
Speed
Unknown
Apparent Right ascension
Unknown
Apparent Declination
Unknown
Sunlit
N/A
Visualization observer readout
Local Sidereal Time
07:17:31
Azimuth
Unknown
Elevation
Unknown
Doppler factor
Unknown
Orbital elements
Apogee altitude
476.368 km
Perigee altitude
474.529 km
Semi-major axis
6,853.586 km
Eccentricity
0.00013
Inclination
53.1589°
RAAN
120.9706°
Arg. of periapsis
93.6629°
True anomaly
266.43716°
Mean anomaly
266.4525°
Eccentric anomaly
266.44483°
Mean motion
3.82531 °/min
Orbital period
94.11 mins
BSTAR
0.00091735
Loading maneuver chart data...
Computing Atmospheric mass density...
Loading historical data...
Loading historical data...
Loading historical data...
Loading historical data...
Loading historical data...
Loading historical data...
Loading historical data...

Documentation

Showing up to 5 results
|